[[{"header":{"parameterUnit":"m.s-1","parameterCategory":1,"la1":30.2991,"la2":30.254,"lo1":-89.0895,"lo2":-89.0444,"dy":0.0017,"dx":0.0017,"nx":28,"ny":28,"refTime":"2023-10-18T03:00:00:Z","depth":0,"parameterNumber":2,"parameterNumberName":"U-component_of_WINDS"},"data":[0,0,0,0,0,0,0,0,0,0,0,0,0,0,0,0,0,0,0,0,0,0,0,0,0,0,0,0,0,0,0,0,0,0,0,0,0,0,0,0,0,0,0,0,0,0,0,0,0,0,0,0,0,0,0,0,0,0,0.9682,0.9682,0,0.9745,0.9746,0.9747,0.978,0.978,0.978,0.978,0.9846,0.9848,0.9849,0,0,0,0,0,0,0,0,0,0,0,0,0,0.9591,0.9592,0.9681,0.9682,0.9683,0.9745,0.9746,0.9747,0.978,0.978,0.978,0.978,0.9845,0.9847,0.9849,0,0,0,0,0,0,0,0,0,0,0,0,0,0.964,0.9593,0.9681,0.9707,0.971,0.9745,0.9746,0.9747,0.978,0.978,0.978,0.978,0.9845,0.9847,0.985,0.9864,0,0,0.9857,0.9859,0,0,0,0,0,0,0,0,0.9637,0.9643,0.9703,0.9705,0.9709,0.9755,0.9738,0.9786,0.978,0.9753,0.978,0.978,0.9816,0.982,0.9832,0.9867,0.987,0.9858,0.9859,0.986,0.9861,0,0,0,0,0,0,0,0.9634,0.9641,0.9707,0.9703,0.9707,0.9716,0.9723,0.9747,0.9783,0.9756,0.9758,0.9765,0.9817,0.983,0.9834,0.9871,0.9858,0.986,0.9861,0.9862,0.9923,0.9923,0,0,0,0,0,0,0.9626,0.9638,0.9705,0.9709,0.9672,0.9718,0.9726,0.974,0.9783,0.979,0.9765,0.9767,0.9825,0.9831,0.9836,0.9857,0.986,0.9863,0.9864,0.9923,0.9923,0.9923,0,0,0,0,0,0,0.9624,0.9632,0.9702,0.9674,0.9684,0.9719,0.9735,0.9741,0.9754,0.979,0.9797,0.9771,0.9826,0.9833,0.9857,0.986,0.9864,0.9866,0.9922,0.9923,0.9923,0.9898,0,0,0,0,0,0,0.9621,0.9631,0.9636,0.9674,0.9685,0.9721,0.9735,0.9742,0.9758,0.976,0.9798,0.9804,0.9826,0.9853,0.986,0.9864,0.9868,0.9922,0.9923,0.9923,0.9899,0.9897,0.9896,0,0,0,0,0,0.9618,0.9626,0.9636,0.9644,0.9692,0.9721,0.9728,0.9753,0.9758,0.9764,0.9788,0.9803,0.9859,0.9855,0.9863,0.9868,0.9922,0.9923,0.9923,0.9899,0.9897,0.9896,0,0,0,0,0,0,0.9587,0.9631,0.9643,0.9663,0.9688,0.9727,0.9735,0.975,0.9774,0.9775,0.9806,0.9814,0.9836,0.9854,0.985,0.9885,0.9892,0.9894,0.9872,0.987,0.9869,0.9864,0.987,0,0,0,0,0,0.9583,0.9602,0.964,0.9655,0.9667,0.9698,0.9712,0.973,0.9757,0.9767,0.9793,0.9819,0.9843,0.9858,0.9881,0.9902,0.9911,0.9909,0.9907,0.9906,0.9907,0.9921,0.9921,0.9923,0.9923,0.9923,0,0,0.9574,0.96,0.9611,0.9649,0.967,0.9691,0.9707,0.9727,0.9743,0.9771,0.9795,0.9815,0.9847,0.9869,0.9881,0.9885,0.9909,0.9906,0.9905,0.9907,0.9921,0.9921,0.992,0.9923,0.9923,0.9923,0,0,0.9568,0.959,0.9605,0.9626,0.9659,0.968,0.9684,0.9721,0.9735,0.976,0.9782,0.9801,0.9841,0.9863,0.9879,0.9884,0.9899,0.9891,0.9884,0.9897,0.9896,0.9896,0.9899,0.99,0.9892,0.9892,0.9892,0,0.9553,0.9584,0.9611,0.963,0.9647,0.9674,0.969,0.971,0.9748,0.976,0.9764,0.9816,0.9839,0.9868,0.9869,0.9881,0.9887,0.9887,0.9894,0.9894,0.9895,0.9898,0.9899,0.9891,0.9891,0.9891,0.9891,0,0.9564,0.9585,0.9594,0.9631,0.9649,0.9666,0.9697,0.9712,0.9729,0.975,0.9777,0.9805,0.9836,0.9844,0.986,0.9876,0.9878,0.9888,0.9896,0.9893,0.9896,0.9898,0.9889,0.989,0.989,0.989,0,0,0.9539,0.9592,0.9595,0.9613,0.9651,0.9669,0.9689,0.9719,0.9732,0.9758,0.9776,0.981,0.982,0.9838,0.9857,0.9869,0.9872,0.9878,0.9879,0.9876,0.9893,0.9885,0.9886,0.9883,0.9883,0.9883,0.9891,0,0.9539,0.9575,0.9602,0.9628,0.9649,0.9676,0.9693,0.9719,0.974,0.9762,0.9785,0.9809,0.982,0.9831,0.9844,0.9869,0.9876,0.9869,0.9901,0.9901,0.9892,0.9888,0.9879,0.9885,0.9892,0.9892,0.9892,0,0.9543,0.9569,0.9598,0.9636,0.9646,0.9661,0.9692,0.9712,0.9743,0.9757,0.9779,0.9799,0.9822,0.9829,0.9862,0.9856,0.9871,0.9886,0.9887,0.989,0.9896,0.9892,0.9887,0.9888,0.9894,0.9894,0.9894,0,0.9523,0.9566,0.9589,0.9603,0.9648,0.9658,0.9677,0.9708,0.9726,0.9753,0.9764,0.9794,0.981,0.9833,0.986,0.9862,0.9891,0.99,0.9905,0.9904,0.9909,0.9908,0.9907,0.9918,0.9918,0.9918,0.9918,0,0.9521,0.9537,0.9581,0.9595,0.9615,0.9645,0.9665,0.9686,0.9714,0.9734,0.9758,0.9776,0.9812,0.9835,0.9857,0.9881,0.9888,0.9901,0.9907,0.9899,0.9898,0.9909,0.991,0.9919,0.9918,0.9918,0.9918,0,0.9501,0.9531,0.9558,0.9599,0.9609,0.9622,0.9658,0.9673,0.9696,0.9721,0.9728,0.9765,0.9793,0.9823,0.9861,0.9876,0.99,0.9908,0.9889,0.9893,0.9896,0.9896,0.9902,0.9905,0.9914,0.9914,0.9914,0,0.9497,0.9511,0.9554,0.9569,0.9588,0.9611,0.9629,0.9661,0.9678,0.9716,0.9727,0.9757,0.9783,0.9827,0.9857,0.9886,0.9895,0.9896,0.99,0.9892,0.9896,0.9895,0.9897,0.9894,0.9894,0.9894,0.9893,0,0.9488,0.9502,0.9527,0.9558,0.9578,0.9604,0.963,0.9641,0.9678,0.9697,0.9726,0.9746,0.9786,0.9816,0.985,0.987,0.9888,0.9892,0.9895,0.9887,0.9876,0.9883,0.9886,0.9892,0.9892,0.9892,0.9892,0.9892,0.9477,0.9491,0.9524,0.9551,0.9574,0.9599,0.9616,0.9642,0.9666,0.9701,0.9719,0.9748,0.9781,0.9828,0.9848,0.9872,0.9878,0.9882,0.9883,0.9883,0.9882,0.9872,0.9879,0.9879,0.9879,0.9879,0.9879,0,0.9469,0.9492,0.9517,0.9554,0.9576,0.9591,0.9622,0.9639,0.9665,0.9693,0.9719,0.9753,0.9783,0.9816,0.9848,0.9861,0.987,0.9868,0.9868,0.9872,0.9875,0.9869,0.986,0.986,0.986,0.986,0.986,0.986,0.9468,0.9493,0.9511,0.9549,0.9572,0.9601,0.9617,0.9641,0.9664,0.9701,0.9726,0.9748,0.9779,0.9814,0.9842,0.9851,0.9862,0.9858,0.9869,0.9871,0.9872,0.9873,0.9869,0.986,0.986,0.9865,0.9865,0.9865]},{"header":{"parameterUnit":"m.s-1","parameterCategory":1,"la1":30.2991,"la2":30.254,"lo1":-89.0895,"lo2":-89.0444,"dy":0.0017,"dx":0.0017,"nx":28,"ny":28,"refTime":"2023-10-18T03:00:00:Z","depth":0,"parameterNumber":3,"parameterNumberName":"V-component_of_WINDS"},"data":[0,0,0,0,0,0,0,0,0,0,0,0,0,0,0,0,0,0,0,0,0,0,0,0,0,0,0,0,0,0,0,0,0,0,0,0,0,0,0,0,0,0,0,0,0,0,0,0,0,0,0,0,0,0,0,0,0,0,2.1943,2.1943,0,2.1959,2.1959,2.1959,2.1995,2.1996,2.1997,2.1998,2.2011,2.2011,2.2011,0,0,0,0,0,0,0,0,0,0,0,0,0,2.1941,2.194,2.1943,2.1944,2.1944,2.1959,2.1959,2.196,2.1995,2.1996,2.1997,2.1998,2.2011,2.2011,2.2011,0,0,0,0,0,0,0,0,0,0,0,0,0,2.1947,2.194,2.1943,2.1963,2.1965,2.1959,2.1959,2.196,2.1995,2.1996,2.1997,2.1998,2.2012,2.2011,2.2011,2.1985,0,0,2.2009,2.2009,0,0,0,0,0,0,0,0,2.1947,2.1948,2.196,2.1962,2.1964,2.1977,2.1963,2.1968,2.1995,2.1984,2.1998,2.1999,2.1999,2.1999,2.2,2.1986,2.1986,2.2009,2.2009,2.2008,2.2008,0,0,0,0,0,0,0,2.1947,2.1947,2.195,2.196,2.1963,2.1971,2.1973,2.1964,2.1985,2.1985,2.1987,2.1989,2.2,2.2,2.2,2.1987,2.2009,2.2009,2.2008,2.2008,2.195,2.1949,0,0,0,0,0,0,2.1944,2.1946,2.1949,2.195,2.1958,2.197,2.1972,2.1971,2.1985,2.1988,2.1988,2.1991,2.2,2.2001,2.2001,2.1971,2.2008,2.2008,2.2008,2.1952,2.195,2.1949,0,0,0,0,0,0,2.1943,2.1943,2.1948,2.1949,2.195,2.1969,2.1967,2.1971,2.1971,2.1987,2.1991,2.1985,2.2001,2.2002,2.1988,2.1972,2.2008,2.2007,2.1953,2.1951,2.1949,2.1911,0,0,0,0,0,0,2.1943,2.1943,2.1935,2.1949,2.195,2.1937,2.1966,2.1971,2.1971,2.1974,2.1985,2.1988,2.2002,2.1989,2.1988,2.1972,2.2007,2.1955,2.1952,2.195,2.1914,2.1908,2.1903,0,0,0,0,0,2.1943,2.1923,2.1934,2.1934,2.194,2.1936,2.1936,2.1954,2.1969,2.196,2.197,2.1988,2.1974,2.1987,2.1987,2.197,2.1956,2.1953,2.195,2.1916,2.1909,2.1903,0,0,0,0,0,0,2.1906,2.1925,2.1938,2.1922,2.1927,2.1942,2.1931,2.1946,2.1946,2.195,2.197,2.1973,2.1956,2.1962,2.1977,2.1945,2.1967,2.1964,2.1942,2.1935,2.193,2.1929,2.2007,0,0,0,0,0,2.1896,2.1892,2.1909,2.1893,2.1895,2.1912,2.1911,2.1924,2.193,2.1932,2.1941,2.1945,2.1942,2.1939,2.1937,2.1915,2.1917,2.1903,2.1897,2.1893,2.189,2.1877,2.187,2.194,2.194,2.194,0,0,2.1876,2.1886,2.1882,2.1886,2.1892,2.1886,2.1914,2.1907,2.1902,2.1931,2.1919,2.1925,2.1931,2.1913,2.1906,2.1917,2.1871,2.1889,2.1885,2.1885,2.1873,2.1866,2.186,2.1938,2.1938,2.1938,0,0,2.1835,2.1843,2.183,2.1835,2.1843,2.1854,2.1851,2.1863,2.1869,2.1857,2.1878,2.1872,2.1866,2.1869,2.1869,2.1828,2.1843,2.1826,2.1798,2.1785,2.178,2.1775,2.1759,2.1753,2.1823,2.1823,2.1823,0,2.1809,2.1802,2.1821,2.1813,2.1813,2.1839,2.1825,2.1828,2.1835,2.1834,2.1847,2.1839,2.1845,2.1827,2.1816,2.1816,2.1812,2.1825,2.1779,2.1775,2.177,2.1755,2.1749,2.1821,2.1821,2.1822,2.1822,0,2.1768,2.1762,2.1751,2.1756,2.1756,2.1744,2.1761,2.1757,2.177,2.1779,2.1766,2.1774,2.1773,2.177,2.1782,2.1753,2.176,2.1776,2.1799,2.1761,2.1747,2.1742,2.1818,2.1819,2.1819,2.182,0,0,2.1705,2.1721,2.1716,2.1719,2.1728,2.1724,2.1713,2.1713,2.1708,2.1711,2.1702,2.1695,2.171,2.171,2.1723,2.1711,2.1676,2.1729,2.1729,2.1718,2.1643,2.163,2.1623,2.1687,2.1686,2.1685,2.1642,0,2.1666,2.1649,2.1666,2.1645,2.1639,2.1663,2.1653,2.1657,2.1665,2.1661,2.1669,2.1664,2.1684,2.1684,2.1674,2.1683,2.1661,2.1686,2.1676,2.1676,2.1674,2.1616,2.1603,2.1562,2.1637,2.1636,2.1635,0,2.1619,2.162,2.1598,2.1608,2.1606,2.1597,2.1597,2.1593,2.1597,2.1604,2.1604,2.1619,2.1607,2.163,2.1613,2.1629,2.1626,2.163,2.1628,2.1628,2.1653,2.1613,2.155,2.1543,2.1627,2.1628,2.1628,0,2.1574,2.1569,2.1556,2.1557,2.1569,2.1561,2.1565,2.1571,2.1569,2.1569,2.1567,2.1565,2.1564,2.1561,2.1575,2.159,2.1555,2.158,2.1559,2.1559,2.1551,2.1551,2.1485,2.155,2.155,2.155,2.155,0,2.1528,2.1514,2.1536,2.1527,2.1511,2.153,2.1513,2.1519,2.1524,2.1516,2.1536,2.1528,2.1547,2.154,2.155,2.1534,2.1533,2.1537,2.154,2.1535,2.1534,2.1533,2.1536,2.1548,2.1549,2.1549,2.1549,0,2.1475,2.1489,2.1476,2.1487,2.149,2.1477,2.1487,2.1478,2.1487,2.1477,2.1475,2.1489,2.1482,2.1496,2.149,2.1497,2.1474,2.1481,2.1472,2.1474,2.1453,2.1454,2.1383,2.1374,2.1445,2.1445,2.1444,0,2.1445,2.1434,2.1444,2.1441,2.1444,2.1438,2.1436,2.1453,2.145,2.1453,2.1444,2.1439,2.1436,2.1423,2.1432,2.1427,2.1434,2.141,2.1434,2.1429,2.1433,2.1433,2.1431,2.1405,2.1404,2.1403,2.1403,0,2.1389,2.1396,2.1393,2.1392,2.1389,2.1388,2.1389,2.1385,2.1403,2.1398,2.1391,2.1389,2.1383,2.1377,2.1374,2.1377,2.1392,2.1395,2.139,2.1384,2.1379,2.138,2.1458,2.1396,2.1397,2.1397,2.1398,2.1398,2.1346,2.1337,2.1342,2.1337,2.134,2.134,2.1332,2.134,2.1335,2.1332,2.1343,2.1333,2.1336,2.1334,2.1335,2.1327,2.1338,2.1331,2.1329,2.1326,2.1322,2.1381,2.1327,2.1327,2.1327,2.1327,2.1327,0,2.129,2.1294,2.129,2.129,2.1286,2.1301,2.1303,2.1298,2.1289,2.1291,2.1287,2.1278,2.1272,2.128,2.1275,2.1267,2.1273,2.1265,2.1265,2.1265,2.1314,2.1318,2.1259,2.1259,2.1259,2.1259,2.1259,2.1259,2.126,2.1246,2.1253,2.1239,2.1244,2.1235,2.1234,2.1234,2.1235,2.1225,2.122,2.1225,2.1229,2.1224,2.1218,2.122,2.1217,2.1206,2.121,2.1255,2.1262,2.1268,2.1273,2.1205,2.1205,2.1162,2.1162,2.1162]}]]